Vorticity
16 17 18 18 19 19 19 20 20 19 21 22 21 22 22 21 20 18 19 20 17 16 16 15 14 14 14 10 8 9 9 9 11 12 11 11 12 10 8 8 8 8 8 7 7 12 11 9 9 7 7 8 7 8 8 9 11 10 12 15 16 16 12 14 17 12 14 25 33 34 26 19 17 16 23 22 11 2 -11 -11 -11 -34 -15 23 7 -6 10
19 19 19 19 19 19 19 19 19 19 20 20 20 22 20 19 22 20 17 18 17 15 15 15 15 15 14 12 9 9 9 11 12 13 14 12 11 12 10 9 8 6 6 7 8 11 11 11 11 9 10 11 9 10 10 11 10 8 10 6 3 9 7 9 20 18 11 13 17 21 22 17 9 6 11 13 17 18 -3 -10 2 -18 -29 -1 11 1 -3
21 21 21 21 21 21 21 21 22 22 22 21 22 24 21 21 24 21 18 19 17 14 15 16 17 17 17 15 14 15 15 15 15 15 15 13 11 12 12 11 9 7 6 6 7 9 11 11 10 8 8 9 10 11 8 9 6 1 2 -1 -1 11 12 3 7 9 7 7 3 4 11 17 14 6 10 11 9 14 12 3 5 -4 -21 -18 -8 -1 1
22 22 21 21 21 21 21 22 23 22 21 21 22 22 21 23 24 20 17 17 16 14 14 17 19 20 20 18 16 17 18 17 16 15 13 12 11 12 12 11 10 8 7 6 6 9 12 12 9 8 10 9 8 10 7 6 5 4 6 6 6 14 9 1 3 8 10 13 16 20 20 21 24 16 11 15 12 9 9 9 10 3 -6 -6 -16 -30 -13
19 18 18 20 21 23 25 25 25 23 22 21 20 20 19 20 21 20 17 13 13 15 15 16 19 20 19 20 19 18 18 18 17 15 14 12 11 12 11 12 11 9 9 11 10 10 12 12 10 10 11 7 5 8 9 6 6 8 9 7 9 10 4 3 9 10 11 10 12 24 27 21 24 28 24 23 21 17 8 4 12 7 -8 1 6 -20 -38
17 18 21 25 28 29 29 28 26 23 22 20 19 19 18 17 16 16 17 13 11 17 20 19 20 22 22 22 20 18 20 22 19 16 14 12 11 11 11 11 11 8 8 10 11 11 12 12 12 13 11 8 7 10 10 7 6 6 5 4 7 8 4 7 9 7 11 12 7 13 22 21 19 18 20 22 24 26 16 3 10 11 -8 -12 7 18 0
20 25 28 30 29 27 25 25 24 23 22 22 20 18 18 19 18 15 16 13 7 11 23 26 21 20 22 24 23 20 19 19 17 15 13 11 10 11 11 13 13 11 10 11 11 12 13 12 13 13 10 10 11 11 8 7 7 5 5 6 6 7 9 8 6 5 10 13 11 11 11 14 19 17 11 8 14 27 31 21 14 14 11 5 -4 -1 11
25 31 31 29 26 23 22 23 24 25 26 26 26 23 19 19 21 20 20 20 9 -0 10 26 27 21 19 22 23 22 18 16 15 15 12 10 11 12 12 14 14 11 9 10 11 11 11 11 10 9 10 11 11 10 6 6 7 4 5 7 4 5 10 9 6 6 8 8 11 17 15 10 11 18 21 14 7 12 23 30 28 18 11 14 8 -4 -5
33 35 30 26 22 21 22 23 24 26 27 29 30 31 27 23 22 22 22 25 22 9 3 14 26 27 22 20 20 19 18 17 17 17 13 10 13 15 12 10 10 7 6 8 10 8 6 7 6 6 11 13 12 10 7 6 4 0 1 5 5 5 6 7 9 8 6 7 7 9 16 20 16 15 22 23 14 6 6 14 26 30 22 15 15 15 9
36 29 23 21 20 21 24 24 23 23 25 28 29 31 31 28 24 24 24 22 24 22 14 9 15 24 25 23 20 17 18 19 18 17 14 11 12 15 14 12 11 12 12 11 10 7 5 7 9 11 15 16 14 11 10 11 7 -1 -3 1 5 8 6 4 8 7 4 7 9 8 15 23 20 14 16 20 18 14 9 2 3 12 18 19 16 13 13
29 22 21 20 20 22 23 22 20 19 21 24 27 29 31 30 26 25 27 25 20 20 20 17 15 18 22 24 24 19 16 19 20 17 15 12 13 16 17 14 13 14 13 12 10 8 10 14 14 16 16 14 14 13 10 10 9 3 -1 -1 1 5 7 5 5 6 6 6 6 8 11 9 4 6 13 19 21 22 19 14 12 9 4 6 12 12 11
21 20 21 20 20 21 21 20 17 16 18 19 21 24 26 29 29 26 26 29 23 16 17 19 18 17 15 20 26 23 17 18 21 20 16 14 15 18 18 15 14 13 13 14 14 12 13 16 15 14 14 12 14 16 11 7 8 8 3 -1 0 4 6 7 5 4 7 9 6 5 6 6 6 10 16 19 20 23 27 25 26 28 22 16 15 12 10
19 22 21 21 20 19 20 20 16 16 18 18 19 20 20 24 28 28 27 28 26 20 16 15 17 20 18 17 22 24 20 18 21 22 18 15 16 17 18 16 14 13 15 16 17 15 14 15 14 13 14 14 14 15 14 8 6 8 6 -1 -2 1 3 3 4 4 5 5 4 4 4 4 6 9 15 18 17 20 26 21 10 9 16 20 18 14 13
21 23 21 20 18 16 16 17 16 17 18 18 20 20 17 20 24 25 27 28 26 23 19 16 18 22 22 18 18 22 23 21 22 24 21 20 20 18 18 18 15 13 16 16 16 17 16 14 15 16 15 15 14 15 16 13 5 6 8 2 -4 -2 2 3 5 6 8 8 4 3 6 7 9 12 14 14 13 15 20 18 12 9 10 13 14 12 11
21 19 19 16 13 12 13 11 12 13 13 15 20 19 17 20 21 22 25 26 24 23 22 19 18 18 18 19 20 23 24 22 22 24 23 25 27 22 19 20 17 14 16 15 14 16 16 13 12 17 20 18 15 16 18 15 9 7 7 4 -1 -3 -1 2 3 -0 0 6 6 2 4 8 8 9 11 9 8 12 16 15 16 17 16 17 23 21 12
17 15 14 11 10 11 12 12 12 11 10 12 16 17 18 19 18 20 25 27 24 21 20 19 18 18 19 20 22 22 21 20 20 21 21 24 29 28 22 20 19 18 17 16 14 13 14 14 10 10 18 22 19 19 20 16 11 8 7 5 4 2 -1 -2 -1 0 2 6 6 3 5 12 12 10 12 14 14 18 21 14 9 16 21 23 27 29 22
16 14 12 12 13 12 11 13 14 12 12 13 13 16 17 16 16 17 21 26 26 21 19 19 19 19 19 17 18 18 17 17 17 16 16 20 26 31 27 19 18 21 18 16 17 12 8 13 14 9 12 19 18 19 24 22 15 7 4 4 4 2 4 3 -0 1 4 6 5 2 3 10 15 13 10 10 14 20 19 10 4 11 22 25 21 20 20
19 17 13 13 13 12 11 14 14 13 13 12 14 17 15 12 17 19 18 23 25 20 19 20 18 18 19 16 16 18 19 19 17 15 15 17 20 28 31 22 16 20 18 14 17 16 6 7 14 13 13 16 15 14 19 25 25 14 5 6 6 2 3 8 6 2 2 4 7 6 2 1 4 8 12 13 13 15 11 9 11 10 12 24 26 16 12
19 16 14 14 13 13 14 14 15 15 14 12 14 17 12 10 17 22 20 22 24 20 18 19 19 19 19 16 14 15 16 17 17 17 16 15 16 24 33 29 20 19 18 13 15 19 11 4 8 12 13 14 12 9 10 16 24 26 17 8 4 4 6 7 6 4 6 9 9 5 4 4 2 5 16 19 16 15 9 7 17 15 9 24 37 25 14
17 16 15 15 14 13 15 15 15 14 12 13 15 15 12 14 19 20 19 22 24 21 18 18 19 18 17 16 15 15 14 15 17 18 16 13 13 18 27 32 26 20 19 17 15 16 12 7 8 9 9 11 10 7 8 8 10 20 27 20 9 6 8 10 12 11 8 8 9 8 10 12 5 3 14 18 15 16 13 7 14 19 13 16 27 25 18
16 15 14 13 11 11 14 15 15 15 14 15 16 14 13 14 16 17 19 21 21 20 19 17 16 15 16 17 15 14 15 15 16 17 16 14 13 13 21 31 29 21 20 19 16 14 9 6 11 13 10 10 8 8 12 11 6 10 18 23 25 18 3 -2 8 15 11 9 12 17 20 14 4 4 16 20 14 13 15 12 12 18 19 17 20 26 25
17 16 15 13 12 13 15 14 15 17 16 14 14 14 14 12 11 15 21 22 20 18 19 18 16 14 16 17 15 13 14 14 15 16 16 16 16 17 24 30 26 20 21 22 20 16 7 4 13 19 14 7 4 9 15 10 6 12 11 7 18 28 15 0 1 8 14 16 15 17 18 13 10 15 21 23 19 15 18 18 10 7 13 16 18 25 27
22 18 13 12 13 14 16 16 15 15 16 16 15 14 14 12 11 15 20 21 22 21 19 16 14 14 15 15 14 14 14 15 17 17 15 16 18 22 27 26 21 21 23 22 20 12 1 3 15 17 13 9 3 9 22 16 4 9 13 6 8 17 20 19 16 10 10 13 12 16 19 16 17 23 23 23 22 16 15 17 10 6 12 13 12 18 21
22 15 10 11 14 16 17 19 19 17 17 17 15 13 12 11 13 18 19 19 23 22 16 12 13 15 16 15 13 13 15 17 18 17 16 16 17 20 23 21 21 26 25 22 22 9 -4 5 18 10 4 13 11 4 12 19 9 3 7 11 12 7 2 9 17 13 8 9 14 22 26 21 20 21 17 17 21 16 12 14 13 14 20 17 12 15 19
15 12 11 12 15 17 17 18 18 15 15 16 15 13 12 12 18 23 21 19 22 21 15 13 15 16 16 14 12 13 16 16 15 15 17 18 16 17 19 21 25 26 22 22 24 10 -3 10 26 16 2 9 17 11 3 3 7 9 6 5 10 12 3 -0 6 11 12 13 16 23 27 26 24 19 12 13 20 15 6 7 11 15 19 17 13 14 18
12 13 13 14 17 19 18 15 13 11 13 19 20 16 14 18 23 24 20 18 20 18 15 17 17 14 13 15 16 17 17 16 15 17 17 16 16 15 18 25 30 22 12 19 26 15 5 10 21 22 17 13 17 21 14 1 -0 8 11 7 10 18 15 6 2 3 6 9 17 27 32 26 22 21 14 12 20 22 10 5 11 16 14 13 12 13 14
15 17 16 17 18 19 18 17 17 16 17 21 21 19 20 23 24 22 19 17 18 15 13 16 17 13 13 17 18 18 18 17 17 18 17 14 13 15 21 31 32 15 3 11 19 13 10 18 18 15 17 20 19 22 25 20 10 4 3 6 12 16 17 14 9 6 6 11 23 36 35 21 16 25 24 13 13 20 13 6 11 15 11 10 10 6 7
18 18 19 20 19 19 19 19 20 19 20 21 20 19 21 20 19 22 20 15 15 15 12 15 19 16 14 18 18 16 19 21 16 15 16 11 10 19 28 29 21 9 3 9 14 6 3 17 27 21 11 10 13 15 17 21 21 14 5 1 5 10 10 8 7 8 11 18 27 32 25 12 8 18 22 15 12 15 11 6 10 12 9 11 12 7 7
18 18 20 19 19 19 17 16 17 17 17 18 16 17 20 20 20 21 15 10 16 17 14 19 24 17 15 22 21 17 20 21 14 12 13 11 13 25 31 22 13 12 7 1 4 11 10 7 12 19 19 15 11 10 9 9 13 19 16 7 4 12 16 8 1 0 5 15 26 24 11 7 18 27 22 13 8 9 8 8 12 15 12 9 11 11 10
19 21 20 17 16 16 15 19 22 18 17 18 17 17 19 17 16 14 10 12 19 16 13 21 22 15 19 27 22 16 18 15 11 11 12 12 19 27 28 20 13 7 -5 -18 -13 15 36 29 9 4 12 16 11 12 20 24 22 23 24 16 6 7 13 11 4 -1 -3 4 21 25 11 9 31 48 43 30 18 11 8 6 6 13 15 9 7 11 10
18 19 18 15 15 15 17 21 19 16 17 17 13 13 14 15 17 18 15 18 20 13 13 20 18 16 26 28 16 11 13 10 10 12 8 10 20 21 19 19 13 -2 -11 -11 -6 10 29 34 24 17 20 21 12 4 5 7 7 10 16 18 11 4 4 4 2 2 -0 -1 12 24 15 3 6 12 17 27 30 21 14 10 3 3 9 8 4 4 4
19 19 17 15 14 15 17 18 17 19 20 13 6 10 19 22 23 20 17 20 19 14 16 22 19 19 24 20 11 11 12 10 11 8 5 12 19 14 13 19 14 2 -2 -0 1 7 16 16 12 14 21 23 18 13 5 -5 -9 -6 -1 6 9 8 6 5 3 6 7 2 7 19 20 12 7 -1 -3 19 41 40 34 32 24 11 7 8 6 0 -1
19 17 15 13 14 15 19 20 20 19 16 9 8 15 22 23 17 11 13 18 16 13 19 22 19 19 17 12 13 15 11 10 10 4 8 23 23 13 14 15 6 5 10 2 -8 1 22 26 12 8 20 26 19 18 19 14 9 7 5 6 11 10 10 10 8 7 11 12 14 20 20 18 21 15 -0 -1 8 12 17 29 33 24 13 10 9 5 5
16 14 13 15 16 17 20 21 20 17 15 16 18 18 18 16 10 8 15 19 14 16 23 19 13 16 16 13 13 8 2 10 13 5 14 30 23 10 14 15 6 8 17 11 -4 -11 5 25 19 5 14 27 21 12 14 15 15 18 17 19 20 15 14 19 14 5 8 15 17 19 19 18 23 29 22 8 -4 -6 2 15 25 28 23 16 15 14 10
14 14 16 17 15 15 17 18 20 23 24 22 19 15 12 12 11 12 17 17 14 16 18 12 9 14 13 11 9 -1 -1 14 16 5 14 28 20 12 17 16 11 13 14 12 4 -12 -12 13 21 3 1 17 19 15 15 13 13 19 21 22 20 10 8 21 22 9 5 9 8 7 10 12 14 20 26 26 20 18 21 22 24 30 26 12 8 13 11
15 15 15 13 11 14 20 22 23 24 22 16 13 14 12 12 16 15 13 14 17 15 7 3 8 10 7 8 10 6 11 25 22 11 16 19 12 20 30 19 12 18 16 10 9 -1 -9 7 19 12 13 23 18 13 16 16 17 24 27 25 22 13 8 16 20 11 5 9 11 9 8 9 11 11 12 16 20 25 29 27 25 30 27 10 -1 4 8
17 15 11 12 16 20 22 22 18 16 15 12 13 14 12 13 17 14 10 13 16 9 0 1 5 7 9 14 16 12 16 23 20 17 21 13 2 18 36 26 14 18 16 10 13 11 4 10 13 6 11 24 21 11 10 10 12 20 24 24 22 20 19 22 22 12 5 6 11 12 9 5 6 6 5 4 3 6 15 21 19 20 25 23 19 18 19
15 9 9 18 24 21 17 17 14 13 14 14 13 12 11 14 16 13 10 9 7 7 11 12 7 7 14 18 17 14 15 16 14 17 24 17 4 9 20 17 12 16 16 15 17 13 8 16 17 1 1 20 26 15 8 7 5 5 11 15 16 18 20 22 21 20 18 12 6 4 5 4 4 6 10 10 2 -5 -0 7 9 11 16 20 21 23 22
9 10 15 21 21 15 13 14 13 14 16 16 13 9 9 13 15 13 12 11 9 14 22 18 9 12 18 15 12 14 16 14 13 15 19 18 11 6 8 11 15 20 20 17 14 8 6 16 19 5 2 14 16 8 12 16 9 3 6 9 7 7 9 7 7 15 26 28 19 6 1 5 10 14 21 29 30 23 16 10 8 13 15 13 12 13 12
13 16 19 19 16 14 15 15 14 17 20 18 12 7 8 12 14 11 9 9 9 12 15 13 10 15 16 11 12 16 15 12 13 13 16 19 15 9 9 15 20 24 22 15 8 5 10 16 14 8 11 14 3 -1 14 20 9 7 22 27 19 17 19 17 15 18 25 33 37 31 24 26 31 32 31 33 37 37 30 16 8 9 11 10 10 12 11
19 19 18 16 15 14 14 16 16 16 16 15 14 12 11 11 12 11 9 9 11 14 14 11 9 10 8 6 12 17 17 14 11 10 14 18 14 10 16 23 22 17 15 14 11 8 11 16 13 8 12 14 1 -4 14 24 14 11 21 24 20 21 25 23 22 23 24 29 36 38 35 34 34 30 24 18 13 13 13 10 7 10 12 11 11 13 13
16 15 14 14 14 13 14 17 16 12 10 13 17 20 19 16 15 15 13 9 10 13 7 -0 2 7 6 3 7 15 19 17 12 11 16 18 15 16 23 23 15 7 5 10 13 9 8 16 17 9 10 17 8 -5 2 15 14 5 -1 -6 -8 -2 4 2 1 5 11 12 11 8 8 8 6 6 6 7 6 7 9 8 8 10 11 10 9 9 8
14 15 14 13 13 12 12 13 11 9 9 10 10 15 22 23 19 14 8 5 9 8 -2 -3 7 11 5 3 10 15 15 13 14 16 14 9 11 19 20 10 6 8 9 8 9 7 6 12 16 11 10 14 11 3 4 10 10 6 3 1 -3 -6 -5 -4 -6 -6 -1 3 1 -1 1 3 4 7 11 11 10 9 7 6 6 5 4 4 5 4 4
12 12 10 10 11 13 13 12 11 11 12 11 10 12 19 23 21 14 10 15 22 18 10 14 21 14 4 6 13 12 10 14 17 16 9 3 7 19 19 8 7 14 13 5 4 8 10 11 13 13 11 7 8 13 15 14 12 13 13 15 14 9 4 4 2 -2 -2 2 3 3 4 4 5 9 11 8 5 5 3 3 4 4 3 4 5 4 4
5 6 8 10 14 16 16 16 14 13 14 14 13 13 17 20 17 6 -4 1 17 28 27 22 14 5 7 13 11 6 11 19 18 13 10 8 11 20 21 14 10 11 11 8 7 10 13 13 10 9 9 7 8 12 10 5 8 15 14 11 13 15 12 12 12 9 6 6 5 5 6 7 6 7 6 3 2 3 2 2 3 4 4 5 5 5 6
10 11 12 13 13 14 15 15 14 15 17 18 17 20 22 20 10 -4 -16 -12 9 29 33 19 4 4 14 18 10 5 9 12 12 13 10 4 7 18 19 12 9 10 12 14 12 8 8 9 6 5 7 7 6 11 14 10 8 13 13 9 8 8 6 6 8 9 8 8 7 5 6 7 6 5 4 3 3 3 2 2 3 4 5 6 7 8 10
10 10 10 9 10 14 19 22 23 23 23 21 18 16 13 8 5 6 10 14 20 25 25 18 9 6 9 11 10 9 4 1 9 16 8 -1 9 20 12 2 9 16 15 13 14 11 9 9 5 4 9 8 -1 0 12 14 6 4 11 15 13 11 9 8 8 8 8 8 8 9 9 8 6 6 5 5 5 4 4 4 5 6 8 9 10 10 11
14 16 16 14 12 13 17 20 18 13 10 9 9 7 7 8 11 17 22 24 21 18 20 20 13 5 4 10 14 11 4 4 15 18 6 3 22 28 8 -5 10 21 15 10 13 12 10 11 8 8 16 17 3 -9 -3 4 2 3 10 14 12 13 14 12 10 11 12 11 11 11 10 8 7 7 7 7 7 7 7 7 8 8 9 10 11 11 12
14 16 16 15 15 16 17 15 8 0 -1 4 8 11 14 18 17 17 21 24 20 17 21 22 15 7 9 14 14 10 8 10 15 13 6 10 27 29 10 -1 12 21 14 8 12 13 11 13 17 18 23 26 18 5 -0 2 3 5 8 8 5 5 6 6 8 11 12 12 12 12 10 9 9 9 9 9 9 9 10 10 11 11 12 12 12 13 14
16 14 13 14 15 16 14 11 6 4 6 7 5 6 13 17 16 19 27 26 16 13 21 28 22 14 14 17 17 17 13 6 5 12 19 21 24 23 15 9 15 19 13 8 13 17 13 13 19 23 21 17 14 11 9 7 7 8 10 11 11 10 10 11 12 13 13 13 13 12 11 11 12 11 10 11 10 10 11 12 12 12 13 13 13 13 13
18 16 15 13 13 12 10 8 7 8 8 6 5 11 18 19 17 22 27 18 4 4 19 30 26 17 17 22 26 23 12 1 6 24 35 29 19 18 19 14 11 16 23 26 25 19 8 1 6 14 15 8 5 7 9 9 10 12 13 14 14 15 15 15 14 14 14 15 16 15 14 14 13 12 12 12 12 12 12 12 12 12 12 12 12 12 13
15 15 15 14 15 16 14 12 11 11 10 11 15 18 15 8 7 15 21 14 3 2 13 25 26 20 17 21 27 24 12 4 8 21 27 20 13 16 23 20 9 7 15 23 20 13 9 5 4 7 11 12 9 7 6 5 7 8 9 9 10 12 13 13 14 15 15 14 15 15 14 13 12 12 12 12 12 12 12 12 12 12 12 12 12 13 13
Height
5681 5678 5676 5674 5673 5671 5671 5670 5669 5670 5672 5671 5671 5671 5671 5672 5673 5674 5676 5677 5676 5676 5678 5681 5682 5684 5689 5693 5694 5696 5700 5704 5708 5710 5713 5717 5719 5721 5724 5728 5732 5735 5738 5741 5744 5747 5750 5752 5754 5756 5758 5761 5763 5764 5767 5771 5772 5773 5775 5777 5778 5780 5780 5782 5787 5788 5790 5794 5797 5799 5802 5805 5808 5810 5815 5820 5821 5824 5831 5833 5835 5839 5840 5843 5846 5845 5849
5666 5664 5661 5659 5658 5656 5655 5655 5654 5654 5655 5656 5656 5656 5655 5656 5658 5658 5659 5662 5662 5661 5664 5667 5667 5670 5675 5677 5679 5683 5687 5692 5696 5699 5703 5707 5710 5712 5715 5719 5723 5726 5729 5733 5736 5739 5742 5745 5747 5749 5752 5754 5756 5759 5762 5764 5766 5768 5770 5771 5772 5773 5775 5778 5782 5784 5785 5788 5791 5794 5794 5796 5800 5804 5807 5812 5816 5821 5826 5830 5830 5831 5834 5839 5839 5838 5843
5652 5650 5647 5646 5644 5642 5641 5640 5639 5638 5639 5640 5640 5640 5640 5641 5643 5644 5643 5646 5648 5647 5650 5652 5653 5656 5660 5663 5668 5672 5675 5680 5685 5689 5692 5696 5699 5702 5705 5709 5713 5717 5721 5724 5728 5731 5734 5738 5740 5742 5745 5748 5750 5754 5756 5758 5760 5761 5762 5765 5767 5769 5771 5773 5775 5778 5780 5782 5785 5789 5790 5791 5796 5800 5801 5805 5811 5814 5819 5822 5821 5821 5827 5832 5831 5832 5840
5639 5636 5634 5632 5630 5628 5626 5625 5624 5623 5623 5624 5624 5625 5625 5627 5629 5630 5629 5631 5634 5634 5636 5638 5639 5642 5645 5649 5656 5660 5663 5668 5672 5676 5681 5684 5688 5691 5695 5699 5703 5707 5711 5714 5719 5723 5727 5730 5733 5735 5739 5742 5744 5747 5750 5751 5753 5755 5758 5761 5764 5766 5767 5767 5769 5773 5776 5779 5782 5786 5788 5789 5791 5794 5797 5800 5804 5808 5812 5813 5812 5816 5822 5822 5822 5829 5837
5625 5622 5620 5618 5615 5614 5613 5611 5610 5608 5607 5608 5609 5609 5609 5611 5614 5616 5615 5617 5619 5621 5622 5623 5625 5629 5632 5637 5643 5647 5650 5655 5659 5664 5669 5673 5677 5681 5685 5689 5693 5698 5703 5707 5711 5715 5719 5722 5725 5729 5733 5734 5736 5740 5743 5745 5748 5751 5755 5757 5759 5761 5762 5762 5765 5769 5772 5775 5778 5782 5783 5784 5786 5789 5792 5795 5798 5801 5805 5804 5805 5813 5817 5814 5817 5824 5828
5612 5609 5607 5604 5601 5599 5598 5597 5595 5594 5593 5593 5594 5594 5594 5596 5600 5602 5603 5606 5607 5608 5610 5611 5612 5616 5620 5624 5630 5634 5637 5643 5647 5652 5657 5662 5667 5670 5674 5679 5684 5689 5694 5698 5702 5706 5710 5714 5717 5722 5725 5726 5729 5735 5738 5739 5743 5746 5749 5751 5754 5756 5757 5759 5762 5764 5767 5770 5773 5776 5778 5779 5782 5784 5786 5789 5791 5793 5797 5799 5802 5808 5808 5808 5815 5819 5819
5599 5596 5593 5591 5588 5585 5584 5583 5582 5581 5581 5580 5581 5582 5582 5583 5587 5589 5590 5594 5597 5597 5598 5599 5601 5605 5608 5612 5618 5622 5625 5631 5635 5639 5644 5650 5654 5659 5664 5670 5675 5679 5684 5688 5693 5698 5701 5705 5709 5714 5717 5720 5724 5730 5732 5734 5738 5741 5743 5746 5749 5751 5753 5756 5758 5759 5761 5764 5767 5770 5773 5774 5776 5778 5781 5784 5786 5788 5791 5794 5798 5801 5802 5806 5813 5812 5811
5587 5584 5581 5578 5576 5573 5572 5571 5570 5569 5570 5570 5569 5570 5571 5572 5574 5577 5578 5582 5586 5586 5587 5589 5592 5595 5598 5602 5607 5611 5614 5618 5621 5626 5632 5638 5644 5650 5655 5660 5664 5669 5674 5679 5684 5689 5692 5696 5701 5704 5709 5713 5718 5723 5726 5729 5733 5735 5738 5741 5744 5747 5749 5751 5753 5754 5755 5758 5762 5764 5767 5769 5770 5772 5775 5778 5781 5783 5785 5788 5792 5795 5797 5802 5806 5805 5805
5575 5572 5570 5568 5565 5563 5562 5561 5559 5558 5559 5560 5560 5560 5561 5561 5563 5566 5568 5572 5575 5577 5577 5579 5582 5586 5590 5592 5596 5600 5603 5606 5610 5616 5623 5629 5634 5638 5642 5647 5651 5657 5663 5669 5674 5678 5682 5687 5691 5695 5701 5707 5711 5716 5719 5722 5725 5728 5732 5735 5738 5741 5743 5744 5747 5749 5750 5754 5757 5758 5761 5764 5765 5766 5769 5772 5775 5777 5780 5783 5786 5789 5791 5795 5798 5798 5800
5565 5563 5561 5559 5557 5555 5553 5552 5551 5550 5550 5551 5552 5551 5551 5552 5554 5556 5559 5562 5566 5568 5569 5570 5573 5578 5581 5583 5587 5591 5593 5597 5603 5608 5613 5618 5621 5625 5631 5637 5643 5649 5655 5660 5663 5667 5673 5680 5684 5689 5695 5701 5705 5710 5714 5717 5720 5723 5726 5729 5733 5736 5738 5739 5741 5744 5746 5749 5752 5754 5757 5756 5756 5759 5764 5767 5769 5772 5774 5777 5780 5783 5786 5789 5791 5792 5796
5557 5555 5553 5552 5549 5548 5546 5544 5543 5543 5543 5544 5544 5544 5543 5544 5545 5547 5549 5553 5558 5560 5561 5563 5566 5569 5572 5575 5579 5583 5586 5590 5595 5599 5603 5608 5612 5617 5624 5630 5636 5641 5646 5650 5655 5661 5668 5674 5679 5683 5689 5693 5698 5704 5707 5711 5715 5718 5721 5725 5727 5730 5732 5734 5736 5740 5743 5745 5747 5749 5749 5747 5750 5757 5762 5763 5765 5768 5769 5772 5775 5777 5780 5783 5786 5789 5793
5550 5548 5547 5545 5543 5541 5540 5538 5537 5537 5538 5538 5538 5537 5537 5537 5538 5540 5542 5545 5549 5552 5554 5557 5559 5561 5564 5568 5572 5575 5579 5582 5586 5591 5597 5602 5606 5610 5616 5622 5627 5632 5636 5642 5649 5656 5661 5666 5672 5676 5681 5686 5692 5697 5701 5705 5709 5713 5716 5720 5721 5724 5728 5730 5732 5735 5738 5740 5742 5742 5742 5745 5751 5756 5758 5759 5761 5763 5765 5767 5770 5772 5774 5777 5781 5784 5788
5544 5542 5540 5538 5537 5536 5535 5534 5533 5533 5533 5533 5532 5531 5531 5531 5532 5533 5535 5538 5542 5545 5547 5550 5553 5555 5558 5561 5565 5569 5573 5576 5580 5585 5591 5595 5598 5603 5608 5613 5619 5624 5630 5637 5644 5648 5653 5659 5664 5669 5675 5681 5685 5690 5695 5700 5704 5707 5711 5714 5716 5719 5723 5725 5727 5730 5733 5735 5736 5737 5739 5743 5747 5750 5752 5753 5754 5756 5759 5760 5762 5765 5768 5771 5774 5778 5783
5538 5536 5535 5533 5532 5531 5530 5529 5529 5529 5528 5528 5528 5527 5527 5527 5527 5528 5529 5532 5535 5538 5541 5544 5548 5549 5551 5554 5558 5563 5567 5570 5574 5578 5584 5588 5592 5596 5601 5606 5612 5618 5624 5631 5636 5640 5646 5653 5658 5664 5670 5674 5678 5683 5690 5695 5699 5702 5706 5708 5711 5714 5717 5720 5722 5725 5727 5729 5731 5732 5735 5738 5742 5744 5745 5746 5747 5749 5752 5753 5756 5760 5763 5765 5769 5773 5777
5532 5531 5530 5529 5528 5527 5526 5525 5525 5524 5524 5524 5524 5523 5523 5523 5523 5524 5524 5527 5529 5533 5536 5539 5542 5543 5546 5550 5554 5558 5561 5564 5568 5572 5577 5582 5587 5590 5595 5601 5607 5612 5617 5623 5628 5633 5639 5645 5652 5658 5663 5667 5672 5679 5685 5690 5693 5697 5701 5703 5706 5709 5711 5715 5718 5720 5722 5724 5725 5727 5730 5733 5737 5738 5738 5740 5742 5745 5747 5748 5750 5754 5756 5759 5764 5768 5772
5527 5526 5526 5525 5524 5523 5522 5521 5521 5521 5520 5520 5521 5520 5519 5519 5520 5520 5521 5522 5525 5528 5531 5533 5536 5538 5542 5546 5549 5552 5556 5559 5563 5567 5571 5576 5581 5585 5590 5595 5601 5605 5610 5616 5621 5627 5633 5639 5646 5653 5658 5664 5670 5675 5680 5684 5688 5692 5695 5697 5700 5704 5706 5709 5712 5714 5717 5719 5720 5722 5725 5729 5731 5731 5734 5737 5739 5742 5745 5744 5743 5748 5752 5755 5759 5764 5768
5523 5522 5522 5521 5520 5519 5518 5517 5517 5517 5517 5517 5517 5516 5516 5516 5516 5517 5517 5518 5520 5524 5526 5528 5531 5535 5539 5542 5545 5548 5551 5555 5559 5563 5567 5571 5576 5580 5585 5590 5595 5600 5605 5611 5617 5621 5628 5635 5642 5648 5654 5660 5665 5669 5674 5679 5682 5685 5687 5690 5695 5699 5702 5704 5706 5709 5712 5715 5715 5716 5720 5723 5724 5726 5729 5732 5734 5738 5740 5738 5739 5745 5749 5752 5756 5759 5763
5519 5518 5517 5517 5516 5515 5514 5514 5513 5513 5513 5513 5513 5513 5513 5513 5513 5513 5514 5515 5517 5520 5523 5524 5528 5532 5535 5538 5541 5545 5548 5552 5555 5559 5563 5567 5571 5576 5580 5585 5590 5595 5600 5607 5613 5618 5624 5631 5638 5644 5650 5655 5660 5664 5669 5673 5676 5679 5682 5686 5692 5695 5697 5700 5703 5705 5708 5710 5709 5712 5716 5717 5719 5723 5725 5728 5731 5734 5734 5734 5738 5743 5744 5747 5752 5755 5758
5515 5514 5513 5512 5512 5511 5511 5510 5510 5509 5509 5509 5510 5510 5510 5510 5510 5511 5511 5512 5514 5517 5520 5522 5525 5529 5532 5535 5538 5541 5545 5548 5551 5556 5560 5563 5567 5572 5577 5581 5586 5591 5597 5603 5609 5615 5621 5627 5634 5640 5645 5650 5655 5660 5664 5668 5670 5674 5678 5683 5687 5690 5693 5697 5699 5701 5704 5704 5705 5707 5710 5711 5715 5720 5723 5726 5728 5729 5729 5731 5736 5739 5740 5743 5747 5750 5753
5511 5510 5509 5508 5508 5507 5507 5507 5506 5506 5506 5507 5507 5507 5507 5507 5508 5508 5509 5510 5511 5514 5517 5519 5522 5526 5529 5532 5535 5538 5542 5545 5548 5552 5556 5559 5564 5569 5574 5578 5582 5588 5593 5599 5606 5613 5618 5624 5630 5635 5640 5645 5650 5655 5660 5663 5666 5669 5675 5679 5682 5686 5689 5692 5694 5697 5699 5699 5700 5701 5703 5707 5713 5718 5720 5722 5723 5724 5727 5730 5732 5734 5736 5739 5741 5745 5749
5507 5506 5506 5505 5504 5504 5504 5504 5503 5503 5503 5504 5504 5505 5505 5505 5506 5506 5507 5508 5510 5512 5514 5516 5519 5523 5526 5530 5533 5536 5539 5542 5546 5549 5553 5557 5562 5566 5570 5575 5579 5584 5590 5596 5603 5609 5614 5619 5625 5630 5636 5641 5646 5650 5655 5659 5661 5665 5670 5674 5678 5681 5684 5687 5690 5694 5695 5695 5696 5698 5700 5705 5710 5713 5714 5716 5718 5721 5725 5728 5729 5730 5732 5735 5737 5741 5745
5504 5503 5503 5502 5502 5501 5501 5501 5500 5500 5501 5501 5502 5502 5503 5504 5505 5505 5505 5506 5508 5510 5512 5514 5518 5521 5524 5527 5530 5533 5537 5540 5543 5548 5552 5555 5559 5563 5568 5572 5576 5581 5586 5592 5599 5606 5611 5616 5621 5627 5633 5639 5643 5647 5650 5654 5657 5662 5667 5670 5673 5676 5680 5684 5687 5691 5692 5693 5694 5695 5698 5702 5706 5708 5709 5712 5715 5718 5722 5724 5725 5727 5729 5731 5734 5737 5740
5501 5500 5500 5500 5499 5499 5498 5498 5498 5498 5498 5499 5500 5500 5501 5503 5503 5504 5504 5505 5507 5509 5511 5513 5516 5519 5522 5525 5528 5531 5535 5539 5542 5546 5550 5553 5557 5561 5565 5569 5573 5578 5584 5589 5596 5602 5608 5613 5617 5623 5628 5633 5638 5642 5646 5650 5654 5659 5663 5666 5669 5673 5677 5680 5683 5685 5687 5688 5690 5691 5694 5698 5701 5703 5705 5708 5711 5715 5718 5720 5722 5724 5725 5727 5730 5733 5736
5498 5498 5498 5497 5497 5496 5496 5496 5496 5496 5497 5497 5498 5499 5499 5501 5502 5503 5503 5504 5506 5508 5510 5512 5514 5517 5521 5524 5527 5531 5534 5538 5541 5545 5548 5552 5555 5558 5562 5566 5570 5576 5582 5587 5593 5599 5604 5609 5613 5618 5622 5627 5632 5637 5641 5646 5651 5655 5658 5661 5665 5669 5673 5675 5679 5682 5684 5685 5686 5687 5690 5693 5696 5698 5701 5704 5707 5711 5714 5716 5718 5719 5721 5724 5726 5730 5733
5496 5496 5495 5495 5495 5494 5494 5494 5494 5495 5495 5496 5497 5497 5498 5499 5500 5501 5502 5504 5505 5507 5509 5511 5514 5517 5520 5523 5527 5530 5534 5537 5541 5544 5548 5550 5552 5555 5559 5564 5569 5574 5580 5586 5592 5597 5601 5606 5611 5615 5620 5625 5629 5633 5637 5642 5647 5651 5653 5656 5660 5665 5669 5672 5676 5679 5680 5681 5683 5684 5685 5688 5691 5694 5696 5698 5702 5705 5709 5711 5713 5715 5717 5720 5723 5726 5730
5494 5494 5493 5493 5493 5493 5493 5493 5493 5494 5494 5495 5496 5497 5497 5498 5499 5501 5502 5503 5505 5507 5509 5511 5513 5516 5520 5523 5526 5530 5534 5537 5540 5543 5546 5548 5550 5554 5558 5563 5568 5573 5579 5585 5591 5596 5600 5605 5609 5614 5618 5623 5627 5631 5634 5639 5643 5647 5651 5655 5659 5663 5666 5670 5674 5675 5676 5678 5679 5679 5681 5685 5688 5690 5692 5695 5698 5701 5704 5706 5708 5710 5712 5715 5719 5723 5726
5493 5492 5492 5491 5491 5491 5492 5492 5492 5493 5494 5494 5495 5496 5496 5497 5499 5500 5501 5503 5505 5507 5509 5511 5514 5517 5519 5523 5526 5529 5533 5536 5539 5542 5544 5546 5549 5553 5557 5561 5566 5572 5577 5583 5590 5596 5600 5603 5608 5612 5616 5620 5624 5628 5632 5636 5641 5646 5650 5654 5658 5660 5663 5667 5670 5670 5672 5675 5676 5677 5679 5681 5684 5686 5688 5691 5694 5697 5700 5703 5705 5707 5709 5710 5713 5717 5722
5492 5491 5491 5491 5491 5491 5491 5491 5492 5493 5493 5494 5494 5495 5496 5497 5498 5500 5501 5503 5505 5507 5509 5511 5514 5517 5519 5522 5526 5529 5532 5535 5539 5541 5544 5546 5549 5553 5557 5561 5566 5571 5576 5581 5588 5594 5598 5602 5606 5610 5614 5618 5622 5626 5630 5634 5638 5642 5647 5650 5653 5657 5660 5664 5665 5667 5669 5671 5673 5675 5676 5677 5680 5682 5683 5686 5690 5694 5697 5700 5703 5705 5707 5708 5710 5713 5717
5491 5491 5490 5491 5491 5491 5491 5491 5492 5492 5493 5494 5494 5495 5496 5498 5499 5500 5502 5504 5506 5508 5510 5512 5514 5517 5520 5523 5526 5529 5532 5535 5539 5541 5543 5546 5549 5553 5556 5560 5565 5570 5575 5581 5588 5593 5597 5600 5604 5608 5612 5616 5620 5624 5626 5630 5634 5639 5643 5647 5650 5653 5657 5660 5662 5664 5665 5666 5669 5672 5673 5675 5676 5678 5679 5681 5686 5690 5693 5696 5698 5700 5703 5705 5708 5711 5714
5491 5491 5491 5491 5491 5492 5492 5492 5493 5493 5494 5494 5495 5496 5497 5498 5500 5501 5503 5505 5507 5509 5511 5513 5515 5518 5520 5523 5526 5529 5533 5536 5539 5541 5544 5547 5550 5553 5557 5561 5566 5570 5574 5580 5586 5592 5595 5598 5602 5606 5611 5615 5619 5621 5624 5627 5631 5636 5640 5643 5646 5650 5653 5656 5659 5660 5662 5664 5666 5669 5671 5673 5674 5674 5676 5678 5681 5684 5688 5692 5695 5697 5699 5702 5705 5708 5710
5492 5492 5492 5492 5492 5493 5493 5493 5494 5494 5495 5496 5497 5498 5499 5500 5501 5503 5505 5507 5508 5510 5512 5514 5516 5519 5521 5524 5527 5530 5534 5536 5539 5542 5545 5548 5551 5554 5558 5562 5566 5569 5574 5579 5584 5589 5593 5596 5600 5604 5609 5613 5616 5619 5622 5626 5630 5634 5637 5641 5645 5648 5650 5653 5655 5656 5659 5662 5663 5665 5668 5671 5673 5674 5676 5678 5680 5681 5683 5686 5690 5693 5696 5698 5701 5703 5705
5494 5494 5494 5494 5494 5494 5494 5495 5495 5496 5497 5497 5499 5500 5500 5501 5503 5505 5507 5508 5510 5512 5514 5515 5518 5520 5522 5525 5528 5531 5534 5537 5541 5544 5548 5550 5553 5556 5559 5562 5566 5570 5574 5579 5584 5588 5592 5596 5599 5603 5607 5610 5614 5617 5621 5625 5628 5631 5635 5639 5642 5645 5648 5650 5651 5653 5656 5659 5661 5662 5665 5668 5672 5674 5675 5677 5679 5681 5682 5683 5686 5689 5692 5695 5697 5699 5701
5497 5497 5497 5496 5496 5496 5496 5496 5497 5498 5499 5499 5500 5501 5503 5504 5506 5507 5509 5510 5512 5514 5515 5517 5519 5522 5525 5528 5531 5534 5537 5540 5543 5546 5548 5551 5554 5557 5560 5563 5567 5571 5575 5580 5584 5588 5591 5595 5599 5602 5606 5608 5612 5615 5619 5622 5626 5629 5632 5636 5640 5642 5645 5647 5649 5651 5653 5656 5658 5660 5662 5665 5668 5672 5674 5675 5676 5678 5680 5681 5682 5685 5687 5689 5692 5695 5697
5499 5499 5499 5499 5499 5499 5499 5499 5499 5500 5501 5502 5503 5504 5505 5507 5508 5510 5511 5513 5514 5516 5518 5520 5522 5525 5528 5531 5534 5536 5539 5542 5545 5548 5550 5552 5555 5558 5561 5564 5568 5572 5577 5581 5584 5588 5592 5595 5599 5602 5605 5607 5611 5614 5617 5621 5624 5627 5630 5633 5636 5639 5641 5644 5647 5649 5651 5653 5655 5658 5660 5662 5665 5668 5671 5672 5674 5675 5677 5679 5681 5683 5685 5686 5689 5692 5694
5502 5502 5502 5502 5501 5501 5501 5501 5502 5502 5503 5504 5505 5507 5508 5509 5511 5512 5514 5515 5517 5519 5521 5523 5525 5528 5530 5533 5536 5538 5541 5543 5546 5549 5551 5553 5557 5559 5562 5566 5570 5574 5578 5582 5586 5589 5592 5596 5599 5602 5605 5607 5610 5613 5616 5620 5623 5625 5628 5631 5635 5637 5640 5642 5644 5647 5649 5652 5654 5656 5658 5660 5663 5665 5667 5669 5671 5672 5674 5675 5678 5680 5682 5684 5687 5689 5691
5505 5505 5505 5504 5504 5504 5504 5504 5504 5505 5506 5507 5509 5510 5511 5513 5514 5515 5517 5519 5520 5522 5524 5526 5528 5531 5533 5535 5537 5539 5542 5544 5546 5549 5552 5555 5558 5562 5565 5569 5573 5576 5580 5584 5588 5590 5593 5596 5599 5602 5605 5607 5610 5612 5616 5619 5622 5624 5627 5630 5633 5636 5638 5640 5642 5644 5647 5650 5652 5654 5656 5658 5660 5662 5664 5666 5669 5670 5671 5673 5675 5677 5678 5681 5683 5686 5688
5508 5508 5508 5507 5507 5507 5508 5508 5508 5509 5510 5511 5512 5514 5515 5516 5518 5519 5520 5522 5524 5525 5527 5529 5532 5534 5535 5537 5539 5541 5543 5545 5548 5551 5554 5557 5560 5564 5567 5571 5575 5579 5582 5586 5589 5592 5595 5597 5599 5601 5604 5606 5609 5612 5616 5619 5622 5624 5627 5629 5632 5635 5637 5638 5641 5643 5645 5647 5650 5651 5653 5655 5657 5659 5661 5663 5666 5667 5669 5670 5672 5673 5675 5677 5680 5682 5684
5512 5511 5511 5511 5510 5511 5511 5512 5512 5513 5514 5515 5516 5517 5519 5520 5521 5523 5524 5525 5527 5528 5530 5532 5535 5536 5538 5540 5541 5543 5545 5547 5550 5553 5557 5560 5563 5566 5569 5572 5576 5580 5584 5586 5590 5593 5597 5599 5600 5602 5604 5606 5609 5612 5615 5619 5622 5624 5627 5629 5631 5633 5635 5637 5639 5641 5643 5645 5647 5648 5650 5652 5654 5655 5656 5659 5661 5664 5666 5667 5669 5671 5672 5675 5677 5679 5681
5516 5515 5515 5514 5514 5515 5516 5516 5517 5518 5518 5519 5520 5521 5523 5524 5525 5526 5527 5529 5530 5532 5534 5535 5538 5539 5541 5542 5544 5545 5547 5550 5552 5555 5558 5561 5564 5567 5570 5573 5577 5580 5584 5587 5591 5594 5597 5599 5601 5603 5605 5607 5610 5613 5616 5619 5622 5624 5626 5628 5630 5632 5634 5636 5638 5640 5641 5642 5644 5646 5647 5649 5651 5652 5654 5655 5657 5660 5663 5665 5667 5669 5670 5672 5674 5677 5679
5520 5520 5519 5519 5519 5520 5520 5521 5521 5522 5522 5523 5524 5525 5526 5528 5529 5530 5531 5532 5534 5536 5537 5539 5540 5542 5543 5545 5546 5548 5549 5552 5554 5557 5560 5563 5565 5568 5571 5574 5578 5582 5585 5588 5591 5594 5597 5599 5601 5603 5605 5608 5611 5614 5616 5619 5621 5623 5625 5627 5629 5631 5633 5635 5637 5638 5640 5640 5642 5643 5645 5647 5649 5650 5652 5654 5655 5658 5660 5663 5665 5667 5669 5671 5673 5675 5677
5524 5524 5524 5524 5524 5524 5525 5525 5526 5526 5527 5527 5528 5529 5530 5531 5532 5533 5534 5535 5537 5538 5540 5541 5543 5544 5546 5547 5550 5551 5552 5553 5556 5558 5561 5564 5567 5570 5572 5575 5579 5583 5586 5588 5591 5594 5597 5599 5602 5604 5606 5609 5612 5615 5617 5619 5621 5623 5624 5626 5628 5630 5631 5633 5635 5636 5638 5639 5641 5642 5644 5646 5648 5649 5651 5653 5655 5657 5660 5662 5664 5666 5667 5669 5671 5673 5675
5529 5529 5529 5529 5529 5529 5529 5529 5529 5530 5530 5531 5532 5533 5534 5535 5536 5537 5538 5539 5540 5542 5543 5545 5546 5547 5549 5551 5553 5554 5555 5556 5558 5560 5563 5566 5568 5571 5574 5577 5580 5583 5586 5588 5590 5594 5597 5600 5602 5604 5607 5609 5612 5615 5618 5619 5621 5622 5624 5625 5627 5629 5630 5632 5633 5635 5637 5638 5640 5642 5644 5646 5648 5650 5652 5654 5656 5657 5659 5660 5662 5664 5666 5668 5669 5671 5673
5533 5533 5533 5533 5533 5533 5533 5533 5533 5534 5534 5535 5535 5536 5537 5538 5539 5540 5541 5542 5544 5545 5546 5548 5549 5550 5551 5553 5555 5557 5558 5559 5561 5563 5566 5568 5571 5574 5576 5578 5581 5584 5587 5589 5591 5594 5597 5600 5603 5605 5607 5610 5612 5615 5618 5619 5621 5622 5623 5625 5627 5629 5630 5631 5633 5634 5636 5638 5640 5642 5644 5646 5648 5650 5652 5653 5655 5656 5657 5659 5660 5662 5664 5666 5667 5669 5670
5538 5538 5538 5538 5538 5538 5537 5537 5538 5538 5538 5538 5539 5539 5540 5541 5542 5543 5545 5546 5547 5548 5548 5550 5551 5552 5553 5555 5557 5559 5561 5562 5564 5566 5568 5570 5572 5576 5578 5579 5581 5584 5587 5589 5592 5594 5597 5601 5604 5606 5608 5611 5613 5616 5618 5619 5620 5622 5623 5625 5627 5628 5629 5631 5632 5634 5636 5637 5639 5641 5643 5646 5648 5650 5651 5652 5653 5655 5656 5658 5659 5660 5662 5663 5665 5666 5667
5543 5543 5543 5543 5542 5542 5542 5542 5542 5542 5542 5542 5543 5543 5544 5544 5545 5546 5548 5549 5550 5550 5551 5552 5553 5555 5556 5558 5559 5561 5563 5565 5566 5568 5570 5571 5573 5576 5579 5581 5583 5585 5587 5590 5593 5596 5599 5601 5604 5606 5609 5612 5614 5616 5618 5619 5620 5621 5622 5624 5625 5627 5629 5630 5632 5633 5635 5637 5639 5640 5642 5644 5647 5648 5650 5651 5652 5653 5655 5656 5657 5658 5659 5661 5662 5663 5664
5548 5547 5547 5547 5547 5546 5546 5545 5545 5545 5545 5546 5546 5547 5548 5548 5549 5550 5550 5551 5552 5553 5554 5555 5556 5557 5559 5560 5562 5564 5566 5568 5569 5570 5572 5574 5576 5578 5580 5583 5585 5587 5589 5591 5594 5597 5599 5602 5604 5606 5609 5611 5613 5616 5618 5618 5619 5620 5621 5623 5625 5627 5628 5630 5631 5633 5634 5636 5638 5640 5641 5643 5645 5647 5648 5649 5650 5652 5653 5654 5655 5656 5657 5658 5659 5659 5660
5552 5552 5551 5551 5551 5550 5549 5549 5549 5549 5549 5550 5551 5551 5552 5552 5553 5553 5553 5553 5554 5555 5556 5557 5559 5560 5561 5562 5564 5567 5568 5570 5571 5572 5574 5576 5578 5580 5582 5584 5587 5589 5591 5593 5595 5598 5600 5602 5604 5606 5608 5611 5613 5615 5617 5618 5618 5619 5621 5623 5624 5626 5627 5629 5631 5632 5634 5635 5637 5638 5640 5642 5643 5645 5646 5647 5648 5650 5651 5652 5653 5654 5654 5655 5656 5656 5657
5557 5556 5556 5556 5554 5554 5553 5553 5554 5554 5554 5555 5555 5556 5556 5556 5556 5556 5556 5556 5557 5558 5559 5560 5561 5563 5563 5564 5566 5568 5570 5572 5573 5574 5576 5578 5580 5582 5583 5585 5588 5590 5593 5595 5597 5599 5601 5603 5604 5606 5608 5610 5613 5614 5616 5616 5617 5619 5620 5622 5623 5625 5627 5628 5630 5631 5632 5634 5635 5637 5638 5640 5641 5643 5644 5645 5646 5647 5648 5649 5650 5651 5651 5652 5652 5653 5653
5562 5561 5561 5559 5558 5558 5558 5558 5558 5558 5559 5559 5559 5560 5560 5560 5560 5560 5560 5560 5560 5561 5562 5563 5564 5565 5566 5567 5568 5570 5572 5573 5575 5577 5578 5580 5582 5584 5586 5587 5589 5591 5594 5596 5598 5599 5601 5603 5605 5606 5608 5611 5613 5614 5615 5616 5618 5619 5620 5622 5623 5625 5626 5627 5629 5630 5631 5632 5634 5635 5637 5638 5639 5641 5642 5643 5643 5644 5645 5646 5647 5647 5648 5648 5649 5650 5650
5566 5565 5564 5563 5562 5562 5562 5562 5562 5562 5563 5563 5563 5563 5563 5563 5563 5563 5563 5564 5564 5565 5566 5566 5567 5568 5569 5570 5571 5573 5575 5577 5578 5579 5580 5581 5584 5586 5588 5590 5591 5593 5594 5596 5598 5600 5602 5604 5605 5607 5608 5611 5613 5614 5615 5616 5618 5619 5620 5622 5623 5624 5625 5626 5627 5628 5630 5631 5632 5633 5635 5636 5637 5638 5639 5640 5640 5641 5642 5643 5644 5644 5645 5645 5646 5646 5646
5570 5569 5568 5567 5566 5566 5566 5566 5566 5566 5566 5566 5566 5566 5566 5566 5567 5566 5567 5567 5568 5569 5569 5570 5570 5571 5572 5573 5575 5577 5579 5580 5581 5581 5582 5584 5586 5588 5589 5591 5593 5595 5596 5598 5600 5602 5604 5605 5606 5607 5609 5610 5612 5613 5614 5616 5617 5619 5620 5621 5622 5623 5624 5625 5626 5628 5629 5630 5631 5631 5632 5633 5634 5635 5636 5637 5638 5638 5639 5640 5640 5641 5642 5642 5642 5642 5643
5575 5573 5572 5571 5570 5570 5570 5569 5569 5569 5569 5569 5569 5569 5569 5569 5570 5570 5570 5571 5572 5573 5573 5574 5574 5575 5575 5576 5578 5580 5582 5583 5584 5584 5585 5586 5588 5590 5591 5593 5595 5597 5599 5601 5603 5604 5605 5606 5607 5609 5610 5611 5612 5614 5615 5616 5618 5619 5620 5621 5622 5623 5624 5624 5625 5626 5627 5628 5629 5630 5630 5631 5632 5633 5634 5635 5635 5635 5636 5637 5637 5638 5638 5639 5639 5639 5639